This demonstration page uses our WeatherBlox Daily Observations layout. Learn more.

Hourly Observations for August 5, 2019

Temp ( °F °C ) Dew Point ( °F °C ) Humidity (%) Winds ( mph kmh ) Pressure ( in mb ) Visibility ( mi km ) Precip ( " mm )
12:15 am 00:15 Clear 74 23.2 71 21.7 91 91 S 5 7 29.97 1015 10 16.09344 0 0
12:35 am 00:35 Clear 73 22.9 71 21.6 92 92 S 7 11 29.97 1015 10 16.09344 0 0
12:55 am 00:55 Clear 73 23 71 21.4 91 91 S 9 15 29.97 1015 10 16.09344 0 0
1:15 am 01:15 Clear 74 23.5 69 20.8 85 85 S 12 19 29.97 1015 10 16.09344 0 0
1:35 am 01:35 Mostly Cloudy 75 24 69 20.5 81 81 S 16 26 29.91 1013 10 16.09344 0 0
1:55 am 01:55 Partly Cloudy 74 23.6 69 20.5 83 83 S 12 19 29.91 1013 10 16.09344 0 0
2:15 am 02:15 Clear 74 23.3 69 20.5 84 84 S 9 15 29.94 1014 10 16.09344 0 0
2:35 am 02:35 Clear 73 22.9 69 20.5 86 86 SSE 8 13 29.91 1013 10 16.09344 0 0
2:55 am 02:55 Clear 73 22.7 69 20.5 87 87 SSE 7 11 29.91 1013 10 16.09344 0 0
3:15 am 03:15 Clear 72 22.3 69 20.6 90 90 S 6 9 29.91 1013 10 16.09344 0 0
3:35 am 03:35 Clear 71 21.8 69 20.6 93 93 SSE 5 7 29.91 1013 10 16.09344 0 0
3:55 am 03:55 Clear 72 22.1 69 20.6 91 91 S 7 11 29.91 1013 10 16.09344 0 0
4:15 am 04:15 Clear 72 22.2 69 20.5 90 90 S 8 13 29.91 1013 10 16.09344 0 0
4:35 am 04:35 Clear 71 21.9 69 20.4 91 91 S 7 11 29.91 1013 10 16.09344 0 0
4:55 am 04:55 Clear 71 21.6 69 20.4 93 93 SSE 7 11 29.91 1013 10 16.09344 0 0
5:15 am 05:15 Clear 71 21.8 69 20.3 91 91 S 8 13 29.91 1013 10 16.09344 0 0
5:35 am 05:35 Clear 72 22.2 68 20.2 89 89 SSW 6 9 29.94 1014 10 16.09344 0 0
5:55 am 05:55 Clear 72 22.1 69 20.3 90 90 SSW 7 11 29.94 1014 10 16.09344 0 0
6:15 am 06:15 Clear 72 22 68 20.2 90 90 SSW 8 13 29.94 1014 10 16.09344 0 0
6:35 am 06:35 Clear 71 21.6 68 20.1 91 91 WSW 5 7 29.94 1014 10 16.09344 0 0
6:55 am 06:55 Sunny 71 21.6 68 20.1 91 91 SW 9 15 29.97 1015 10 16.09344 0 0
7:15 am 07:15 Sunny 71 21.5 68 20.1 92 92 SW 6 9 29.97 1015 10 16.09344 0 0
7:35 am 07:35 Sunny 71 21.7 68 20.1 91 91 SW 6 9 29.94 1014 10 16.09344 0 0
7:55 am 07:55 Sunny 71 21.9 68 20 89 89 SW 3 6 29.94 1014 10 16.09344 0 0
8:15 am 08:15 Sunny 71 21.5 68 20.1 92 92 Calm 29.94 1014 10 16.09344 0 0
8:35 am 08:35 Partly Cloudy 71 21.9 69 20.3 91 91 Calm 29.94 1014 10 16.09344 0 0
8:55 am 08:55 Mostly Cloudy 73 22.8 68 20.1 85 85 SSW 3 6 29.94 1014 10 16.09344 0 0
9:15 am 09:15 Partly Cloudy 73 22.7 68 20.2 86 86 S 8 13 29.94 1014 10 16.09344 0 0
9:35 am 09:35 Partly Cloudy 74 23.4 67 19.7 80 80 SSW 5 7 29.91 1013 10 16.09344 0 0
9:55 am 09:55 Sunny 74 23.6 67 19.6 78 78 W 6 9 29.97 1015 10 16.09344 0 0
10:15 am 10:15 Partly Cloudy 75 23.9 68 19.9 78 78 WNW 7 11 29.94 1014 10 16.09344 0 0
10:35 am 10:35 Partly Cloudy 77 25.2 68 19.9 73 73 NNW 6 9 29.91 1013 10 16.09344 0 0
10:55 am 10:55 Sunny 77 25.2 67 19.7 72 72 WNW 3 6 29.91 1013 10 16.09344 0 0
11:15 am 11:15 Sunny 78 25.7 68 20 71 71 WNW 6 9 29.91 1013 10 16.09344 0 0
11:35 am 11:35 Sunny 79 26.1 68 20 69 69 NNW 3 6 29.91 1013 10 16.09344 0 0
11:55 am 11:55 Sunny 79 26.1 68 20.2 70 70 Calm 29.91 1013 10 16.09344 0 0
12:15 pm 12:15 Sunny 79 26.3 69 20.3 70 70 W 3 6 29.94 1014 10 16.09344 0 0
12:35 pm 12:35 Sunny 80 26.6 69 20.4 69 69 WNW 3 6 29.91 1013 10 16.09344 0 0
12:55 pm 12:55 Partly Cloudy 81 27.2 69 20.5 67 67 NW 3 6 29.94 1014 10 16.09344 0 0
1:15 pm 13:15 Sunny 81 27.2 69 20.5 67 67 Calm 29.88 1012 10 16.09344 0 0
1:35 pm 13:35 Partly Cloudy 81 27 69 20.6 68 68 Calm 29.91 1013 10 16.09344 0 0
1:55 pm 13:55 Partly Cloudy 81 27.3 67 19.7 63 63 WSW 3 6 29.88 1012 10 16.09344 0 0
2:15 pm 14:15 Partly Cloudy 81 27.3 66 19 61 61 Calm 29.88 1012 10 16.09344 0 0
2:35 pm 14:35 Mostly Cloudy 81 27.2 69 20.5 67 67 SSW 5 7 29.88 1012 10 16.09344 0 0
2:55 pm 14:55 Cloudy 80 26.7 67 19.4 64 64 Calm 29.91 1013 10 16.09344 0 0
3:15 pm 15:15 Cloudy 81 27 67 19.7 64 64 SSW 3 6 29.91 1013 10 16.09344 0 0
3:35 pm 15:35 Cloudy 80 26.8 69 20.8 70 70 S 3 6 29.91 1013 10 16.09344 0 0
3:55 pm 15:55 Cloudy 80 26.7 69 20.7 70 70 S 3 6 29.91 1013 10 16.09344 0 0
4:15 pm 16:15 Cloudy 80 26.5 71 21.6 75 75 SSW 3 6 29.91 1013 10 16.09344 0 0
4:35 pm 16:35 Mostly Cloudy 81 27 70 20.9 69 69 S 3 6 29.85 1011 10 16.09344 0 0
4:55 pm 16:55 Mostly Cloudy 81 27.1 70 21.3 71 71 S 3 6 29.85 1011 10 16.09344 0 0
5:15 pm 17:15 Cloudy 82 27.6 70 21.1 68 68 S 5 7 29.85 1011 10 16.09344 0 0
5:35 pm 17:35 Mostly Cloudy 83 28.1 69 20.5 63 63 SW 5 7 29.85 1011 10 16.09344 0 0
5:55 pm 17:55 Partly Cloudy 83 28.3 70 21.2 65 65 SSW 6 9 29.85 1011 10 16.09344 0 0
6:15 pm 18:15 Sunny 83 28.2 71 21.6 67 67 SW 6 9 29.85 1011 10 16.09344 0 0
6:35 pm 18:35 Sunny 82 28 70 20.9 65 65 SSW 7 11 29.85 1011 10 16.09344 0 0
6:55 pm 18:55 Sunny 82 28 70 21.2 67 67 SW 5 7 29.85 1011 10 16.09344 0 0
7:15 pm 19:15 Sunny 82 27.7 68 19.8 62 62 SSW 8 13 29.83 1010 10 16.09344 0 0
7:35 pm 19:35 Sunny 82 27.5 68 20 64 64 SSW 6 9 29.83 1010 10 16.09344 0 0
7:55 pm 19:55 Sunny 81 27.1 67 19.6 64 64 SSW 3 6 29.83 1010 10 16.09344 0 0
8:15 pm 20:15 Sunny 80 26.6 67 19.5 65 65 Calm 29.83 1010 10 16.09344 0 0
8:35 pm 20:35 Sunny 78 25.5 67 19.7 70 70 SW 3 6 29.85 1011 10 16.09344 0 0
8:55 pm 20:55 Clear 76 24.5 68 19.8 75 75 Calm 29.88 1012 10 16.09344 0 0
9:15 pm 21:15 Clear 74 23.6 68 20.1 81 81 Calm 29.88 1012 10 16.09344 0 0
9:35 pm 21:35 Clear 75 24.1 68 20 78 78 WSW 3 6 29.88 1012 10 16.09344 0 0
9:55 pm 21:55 Clear 76 24.4 67 19.7 75 75 Calm 29.88 1012 10 16.09344 0 0
10:15 pm 22:15 Clear 74 23.6 67 19.6 78 78 W 3 6 29.88 1012 10 16.09344 0 0
10:35 pm 22:35 Clear 73 23 67 19.6 81 81 Calm 29.91 1013 10 16.09344 0 0
10:55 pm 22:55 Clear 73 23 67 19.3 80 80 Calm 29.91 1013 10 16.09344 0 0
11:15 pm 23:15 Clear 72 22.1 67 19.2 84 84 Calm 29.91 1013 10 16.09344 0 0
11:35 pm 23:35 Clear 73 22.6 67 19.5 83 83 Calm 29.91 1013 10 16.09344 0 0
11:55 pm 23:55 Clear 71 21.9 66 19.1 84 84 W 3 6 29.94 1014 10 16.09344 0 0

Powered by AerisWeather